Location: Newark
(45.7425°N, 0.7617°W)
Time: 01:58:51
(UTC+00:00)

N. Korean satellite - Pass Details

Date: 03 February 2020
Orbit: 456 x 505 km, 97.2° (Epoch: 21 February)

Event Time Altitude Azimuth Distance (km) Brightness Sun altitude
Rises 06:33:12 0° 3° (N) 2,571 10.1 -9.1°
Reaches altitude 10° 06:35:24 10° 353° (N) 1,693 9.1 -8.7°
Maximum altitude 06:38:39 31° 290° (WNW) 884 7.3 -8.1°
Drops below altitude 10° 06:41:56 10° 226° (SW) 1,702 9.0 -7.6°
Sets 06:44:09 0° 216° (SW) 2,586 10.0 -7.2°
